Home > Weather > Galle > Past weeks

Flag for Sri Lanka Weather for the Past 2 Weeks in Galle, Sri Lanka

Now
79 °F

Clear.


Feels Like: 82 °F
Forecast: 80 / 92 °F
Wind: 2 mph from Southeast

Location: Katunayake

Current Time: Apr 29, 2016 at 5:48:58 AM

Latest Report: Apr 29, 2016 at 4:40 AM


Visibility: 6 mi

Pressure: 29.77 "Hg

Humidity: 84%

Dew Point: 73 °F

Location of GalleLocation

Historic Weather in Galle — Graph

°F

Galle Temperature Yesterday

Maximum temperature yesterday: 95 °F (at 10:40 AM)
Minimum temperature yesterday: 79 °F (at 6:40 PM)
Average temperature yesterday: 85 °F

High & Low Weather Summary for the Past Weeks

 TemperatureHumidityPressure
High95 °F (Apr 28, 10:40 AM)94% (Apr 20, 3:40 AM)29.89 "Hg (Apr 20, 3:40 AM)
Low77 °F (Apr 20, 3:40 AM)50% (Apr 28, 10:40 AM)29.68 "Hg (Apr 24, 2:40 PM)
Average85 °F76%29.79 "Hg
* Reported Apr 14 4:40 AM — Apr 29 4:40 AM, Galle, Weather by CustomWeather, © 2016

Note: Actual official high and low records may vary slightly from our data, if they occured in-between our weather recording intervals... More about our weather records

Advertising

Galle Weather History for the Previous 24 Hours

Scroll right to see more
 ConditionsComfort  
Time TempWeatherWind HumidityBarometerVisibility
4:40 AM
Fri, Apr 29
79 °FClear.2 mph84%29.77 "Hg6 mi
3:40 AM79 °FClear.5 mph84%29.74 "Hg6 mi
2:40 AM79 °FPassing clouds.5 mph84%29.77 "Hg6 mi
1:40 AM77 °FPassing clouds.5 mph89%29.77 "Hg6 mi
12:40 AM79 °FPassing clouds.3 mph79%29.80 "Hg6 mi
11:40 PM
Thu, Apr 28
79 °FPassing clouds.5 mph84%29.83 "Hg6 mi
10:40 PM79 °FPassing clouds.5 mph84%29.83 "Hg6 mi
9:40 PM79 °FPassing clouds.5 mph84%29.83 "Hg6 mi
8:40 PM79 °FPassing clouds.7 mph84%29.80 "Hg6 mi
7:40 PM81 °FThundershowers. Passing clouds.2 mph79%29.80 "Hg6 mi
6:40 PM79 °FThunderstorms. Passing clouds.1 mph84%29.77 "Hg4 mi
5:40 PM81 °FThunderstorms. Partly sunny.5 mph84%29.77 "Hg3 mi
4:40 PM91 °FThunderstorms. Scattered clouds.9 mph63%29.74 "HgN/A
2:40 PM91 °FPassing clouds.12 mph59%29.74 "HgN/A
1:40 PM91 °FPassing clouds.10 mph59%29.74 "HgN/A
12:40 PM91 °FPassing clouds.10 mph59%29.77 "HgN/A
10:40 AM95 °FScattered clouds.6 mph50%29.80 "HgN/A
9:40 AM90 °FPassing clouds.7 mph59%29.83 "HgN/A
8:40 AM88 °FPassing clouds.6 mph62%29.83 "HgN/A
Weather by CustomWeather, © 2016

See weather overviewHow to use our weather pages